Regional Weather Roundup
Issued by NWS Goodland, KS

Home | Current Version | Previous Version | Graphics & Text | Print | Product List | Glossary On
Versions: 1 2 3 4 5 6 7 8 9 10 11 12 13 14 15 16 17 18 19 20 21 22 23 24 25 26 27 28 29 30 31 32 33 34 35 36 37 38 39 40 41 42 43 44 45 46 47 48 49 50
000
ASUS43 KGLD 211408
RWRGLD

GOODLAND FORECAST AREA HOURLY WEATHER ROUNDUP
NATIONAL WEATHER SERVICE GOODLAND KS
700 AM MST SUN DEC 21 2014

...OFFICIAL OBSERVATIONS...

CITY           SKY/WX    TMP DP  RH WIND       PRES   REMARKS
GOODLAND KS    CLEAR     29  25  85 S10       29.77F WCI  20
HILL CITY KS   CLOUDY    32  30  92 S12       29.83F FOG
IMPERIAL NEB   CLEAR     24  20  84 CALM      29.73F
MCCOOK NEB     CLEAR     27  25  92 S8        29.76F
AKRON CO       MOCLDY    28  20  71 SW9       29.73F
BURLINGTON CO  CLEAR     27  22  81 W8        29.76F
LIMON CO       MOCLDY    17  15  92 CALM      29.78S
$$

...UNOFFICIAL OBSERVATIONS...

CITY           SKY/WX    TMP DP  RH WIND       PRES   REMARKS
GOVE KS          N/A     31  32 100 MISG        N/A
TRIBUNE KS     CLEAR     21  21 100 W3        29.80
KIT CARSON CO    N/A     25  22  86 MISG        N/A
YUMA CO          N/A     21  16  81 CALM        N/A
$$



USA.gov is the U.S. government's official web portal to all federal, state and local government web resources and services.